Left ArrowRight Arrow

38.20091, -84.87328

Hourly Observations for June 24, 2024

Temp ( °F °C ) Dew Point ( °F °C ) Humidity (%) Winds ( mph kmh ) Pressure ( in mb ) Visibility ( mi km ) Precip ( " mm )
12:53 am 00:53 Clear 72 22.2 70 21.1 93 93 Calm 29.84 1011 10 16 0.00 0.00
1:53 am 01:53 Clear 71 21.7 69 20.6 93 93 NNW 3 6 29.85 1011 10 16 0.00 0.00
2:53 am 02:53 Mostly Clear 70 21.1 68 20 93 93 NW 3 6 29.85 1011 10 16 0.00 0.00
3:53 am 03:53 Clear 70 21.1 66 18.9 87 87 NW 5 7 29.87 1011 10 16 0.00 0.00
4:53 am 04:53 Clear 68 20 66 18.9 93 93 NW 3 6 29.88 1012 10 16 0.00 0.00
5:53 am 05:53 Clear 67 19.4 64 17.8 90 90 NW 6 9 29.90 1012 10 16 0.00 0.00
6:53 am 06:53 Sunny 66 18.9 63 17.2 90 90 NNW 5 7 29.91 1013 10 16 0.00 0.00
7:53 am 07:53 Sunny 69 20.6 63 17.2 81 81 NNW 6 9 29.94 1014 10 16 0.00 0.00
8:53 am 08:53 Sunny 71 21.7 61 16.1 70 70 N 7 11 29.96 1015 10 16 0.00 0.00
9:53 am 09:53 Sunny 74 23.3 62 16.7 66 66 VRB 5 7 29.97 1015 10 16 0.00 0.00
10:53 am 10:53 Sunny 76 24.4 61 16.1 60 60 N 6 9 29.98 1015 10 16 0.00 0.00
11:53 am 11:53 Sunny 79 26.1 59 15 50 50 NE 7 11 29.98 1015 10 16 0.00 0.00
12:53 pm 12:53 Sunny 82 27.8 58 14.4 44 44 VRB 3 6 29.98 1015 10 16 0.00 0.00
1:53 pm 13:53 Sunny 83 28.3 58 14.4 43 43 VRB 6 9 29.98 1015 10 16 0.00 0.00
2:53 pm 14:53 Mostly Sunny 85 29.4 57 13.9 39 39 VRB 7 11 29.97 1015 10 16 0.00 0.00
3:53 pm 15:53 Sunny 86 30 57 13.9 37 37 NE 7 11 29.96 1015 10 16 0.00 0.00
4:53 pm 16:53 Sunny 87 30.6 56 13.3 35 35 VRB 3 6 29.95 1014 10 16 0.00 0.00
5:53 pm 17:53 Sunny 86 30 56 13.3 36 36 VRB 3 6 29.95 1014 10 16 0.00 0.00
6:53 pm 18:53 Sunny 85 29.4 57 13.9 39 39 WNW 5 7 29.94 1014 10 16 0.00 0.00
7:53 pm 19:53 Sunny 84 28.9 57 13.9 40 40 NW 3 6 29.94 1014 10 16 0.00 0.00
8:53 pm 20:53 Sunny 77 25 63 17.2 62 62 Calm 29.93 1014 10 16 0.00 0.00
9:53 pm 21:53 Clear 72 22.2 61 16.1 68 68 Calm 29.94 1014 10 16 0.00 0.00
10:53 pm 22:53 Clear 71 21.7 60 15.6 68 68 Calm 29.95 1014 10 16 0.00 0.00
11:53 pm 23:53 Clear 67 19.4 60 15.6 79 79 Calm 29.95 1014 10 16 0.00 0.00

Powered by Vaisala Xweather